Location: Unspecified
(54.9700°N, 0.0000°E)
Time: 00:40:25
(UTC+00:00)

CZ-6A DEB - Visible Passes

Search period start: 04 April 2026 00:00
Search period end: 14 April 2026 00:00
Orbit: 779 x 786 km, 98.7° (Epoch: 29 March)

Date Brightness Start Highest point End Pass type
(mag) Time Alt. Az. Time Alt. Az. Time Alt. Az.
4 Apr ? 19:41:35 10° SW 19:45:30 21° W 19:49:25 10° NW visible
6 Apr ? 20:20:09 10° W 20:21:50 11° W 20:23:32 10° WNW visible
7 Apr ? 19:45:47 10° SW 19:49:33 20° W 19:53:20 10° NW visible
9 Apr ? 20:24:45 10° W 20:25:52 11° W 20:26:59 10° WNW visible
10 Apr ? 19:49:55 10° SW 19:53:32 19° W 19:57:10 10° NW visible
13 Apr ? 19:54:00 10° SW 19:57:27 18° W 20:00:55 10° NW visible
